Decatur, IL

7:15 PM CDT on July 26, 2017 (GMT -0500)
Decatur

Weather History for KDEC - August, 2012

Change the Weather History Date:

Saturday, August 25, 2012

  Actual Average Record
Temperature  
Mean Temperature 76 °F 73 °F  
Max Temperature 92 °F 84 °F 94 °F (2014)
Min Temperature 59 °F 62 °F 55 °F (2008)
Degree Days  
Heating Degree Days 0 0  
Month to date heating degree days 0 0  
Since 1 June heating degree days 13 18  
Since 1 July heating degree days 0 1  
Cooling Degree Days 11 8  
Month to date cooling degree days 223 224  
Year to date cooling degree days 1241 873  
Since 1 June cooling degree days 1017 786  
Growing Degree Days 26 (Base 50)    
Moisture  
Dew Point 58 °F    
Average Humidity 57    
Maximum Humidity 84    
Minimum Humidity 30    
Precipitation  
Precipitation 0.00 in 0.14 in 0.75 in (2004)
Month to date precipitation 2.03 2.80  
Year to date precipitation 12.28 25.46  
Sea Level Pressure  
Sea Level Pressure 30.02 in    
Wind  
Wind Speed 7 mph (South)    
Max Wind Speed 20 mph    
Max Gust Speed 30 mph    
Visibility 10 miles    
Events      
T = Trace of Precipitation, MM = Missing Value Source: NWS Daily Summary

Daily Weather History Graph

Daily Weather History Graph

Search for Another Location

Airport or City:

Trip Planner

Search our weather history database for the weather conditions in past years. The results will help you decide how hot, cold, wet, or windy it might be!

Date:

Astronomy

Aug. 25, 2012 Rise Set
Actual Time 6:17 AM CDT 7:36 PM CDT
Civil Twilight 5:49 AM CDT 8:04 PM CDT
Nautical Twilight 5:15 AM CDT 8:38 PM CDT
Astronomical Twilight 4:39 AM CDT 9:13 PM CDT
Moon 3:09 PM CDT (8/25) 12:01 AM CDT (8/25)
Length of Visible Light 14h 15m
Length of Day
13h 19m
Waxing Gibbous, 63% of the Moon is Illuminated
Aug 25
Waxing Gibbous
Aug 31
Full
Sep 8
Last Quarter
Sep 15
New
Sep 22
First Quarter

Hourly Weather History & Observations

Time (CDT) Temp. Heat Index Dew Point Humidity Pressure Visibility Wind Dir Wind Speed Gust Speed Precip Events Conditions
12:54 AM 71.1 °F - 55.9 °F 59% 30.01 in 10.0 mi SW 3.5 mph - N/A   Clear
1:54 AM 66.0 °F - 55.9 °F 70% 30.01 in 10.0 mi Calm Calm - N/A   Clear
2:54 AM 63.0 °F - 55.9 °F 78% 30.01 in 10.0 mi Calm Calm - N/A   Clear
3:54 AM 61.0 °F - 55.0 °F 81% 30.01 in 10.0 mi Calm Calm - N/A   Clear
4:54 AM 61.0 °F - 55.0 °F 81% 30.02 in 10.0 mi Calm Calm - N/A   Clear
5:54 AM 60.1 °F - 55.0 °F 83% 30.03 in 10.0 mi Calm Calm - N/A   Clear
6:54 AM 61.0 °F - 55.9 °F 83% 30.05 in 10.0 mi Calm Calm - N/A   Clear
7:54 AM 73.0 °F - 60.1 °F 64% 30.06 in 10.0 mi SSE 3.5 mph - N/A   Clear
8:54 AM 80.1 °F 80.9 °F 60.1 °F 50% 30.06 in 10.0 mi South 9.2 mph - N/A   Clear
9:54 AM 84.9 °F 84.8 °F 60.1 °F 43% 30.07 in 10.0 mi SSE 10.4 mph - N/A   Partly Cloudy
10:54 AM 87.1 °F 86.5 °F 59.0 °F 39% 30.06 in 10.0 mi South 12.7 mph - N/A   Clear
11:54 AM 90.0 °F 88.6 °F 57.0 °F 33% 30.05 in 10.0 mi SSE 11.5 mph 20.7 mph N/A   Clear
12:54 PM 90.0 °F 88.6 °F 57.0 °F 33% 30.03 in 10.0 mi South 18.4 mph 24.2 mph N/A   Partly Cloudy
1:54 PM 89.6 °F 87.7 °F 55.4 °F 31% 30.03 in 10.0 mi South 13.8 mph 23.0 mph N/A   Partly Cloudy
2:54 PM 91.0 °F 89.2 °F 55.9 °F 30% 30.00 in 10.0 mi South 13.8 mph 23.0 mph N/A   Clear
3:54 PM 90.0 °F 87.9 °F 55.0 °F 30% 29.99 in 10.0 mi South 12.7 mph 20.7 mph N/A   Clear
4:54 PM 90.0 °F 88.1 °F 55.9 °F 31% 29.98 in 10.0 mi South 10.4 mph - N/A   Clear
5:54 PM 91.0 °F 88.9 °F 55.0 °F 29% 29.98 in 10.0 mi SSE 16.1 mph - N/A   Partly Cloudy
6:54 PM 88.0 °F 86.1 °F 55.0 °F 32% 29.98 in 10.0 mi SSE 8.1 mph - N/A   Clear
7:54 PM 84.0 °F 83.3 °F 57.0 °F 40% 29.99 in 10.0 mi SSE 6.9 mph - N/A   Mostly Cloudy
8:54 PM 81.0 °F 81.3 °F 59.0 °F 47% 30.01 in 10.0 mi South 5.8 mph - N/A   Partly Cloudy
9:54 PM 79.0 °F - 63.0 °F 58% 30.01 in 10.0 mi SW 6.9 mph - N/A   Clear
10:54 PM 75.9 °F - 64.0 °F 67% 30.02 in 10.0 mi South 3.5 mph - N/A   Clear
11:54 PM 72.0 °F - 63.0 °F 73% 30.01 in 10.0 mi SSE 4.6 mph - N/A   Clear